NOAA 7

Satellite information

Favourite Embed

Satellite Type and Status

PAYLOADIN ORBIT

Key statistics

Satellite NOAA 7 at a glance.

Uptime

16191

Days in orbit

Revolutions

≈ 14.2

Per day

Orbit

SSO

Sun Synchronous Orbit

Inclination

98.8

Latest

Satellite identification and parameters

Extended collection of information and parameters for NOAA 7.

Object identification

Identified? True

Debris? False

Object name: NOAA 7

International designator: 1981-059A

Object number (NORAD): 12553

Object ID (CCSDS): 12553

Country: UNITED STATES OF AMERICA (US)

Current information (Y/N): Y

RCS size: LARGE

Orbital parameters

Period: 101.57 minutes

Inclination: 98.8296 deg

SMA: 7211.158 km

Apoapsis: 840.712 km

Periapsis: 825.333 km

RAAN: 357.9815 deg

Eccentricy: 0.00106632

Argument of periapsis: 229.1694 deg

Mean anomaly: 130.8557 deg

Mean motion: 14.17735702 rev/day

Mean motion (dot): 0.00000141 rev/day2

B* drag term: 0.000090884463 1/REarth

Two-line elements (TLE)

Creation date: Oct. 21, 2025, 3:26 a.m.

Reference frame: TEME

Reference center: EARTH

Epoch: Oct. 20, 2025, 10:12 p.m. UTC

TLE line 0: 0 NOAA 7

TLE line 1: 1 12553U 81059A 25293.92552829 .00000141 00000-0 90884-4 0 9991

TLE line 2: 2 12553 98.8296 357.9815 0010663 229.1694 130.8557 14.17735702290846

Live tracking on map

Real-time ground track for satellite NOAA 7.

In-orbit conjunctions

A list of the most updated potential collisions computed for object NOAA 7.

Target Orbit TCA Probability of collision Miss distance Type
THORAD AGENA D DEB SSO 2025-07-22 03:27:08 0.0001801788 404.0 (m) DEBRIS
METEOR 1-17 DEB LEO 2025-04-17 06:29:31 0.0001048313 423.0 (m) DEBRIS
METEOR 1-17 DEB LEO 2025-04-17 04:47:54 0.0004020784 181.0 (m) DEBRIS
DMSP 5D-2 F13 DEB SSO 2025-04-15 04:35:59 0.0004814101 283.0 (m) DEBRIS
PSLV R/B SSO 2025-03-04 01:20:44 0.0001157484 981.0 (m) ROCKET BODY

Associated space launch

Third generation LEO meteorological satellite

NOAA 7 was lifted into orbit during the mission ‘Atlas F | NOAA 7’, on board a Atlas F space rocket.

The launch took place on June 23, 1981, 10:52 a.m. from Space Launch Complex 3W.

For more information about the launch, click the button.

Launch to space Atlas F | NOAA 7
Atlas F | NOAA 7

Agency: N/A

Status: Launch Successful

Launch date: June 23, 1981, 10:52 a.m. UTC

Rocket: Atlas F

Launch pad: Space Launch Complex 3W

Location: Vandenberg SFB, CA, USA

...

Latest news about this satellite

There are no fresh news available about this satellite. Check back as we update our databases every day.


Newsletter sign-up

Weekly statistics, charts and insights to help you stay on top of the space industry.